Weather History for Oxford, CT

Change the Weather History Date:

Tuesday, February 12, 2013

  Actual Average Record
Temperature  
Mean Temperature 38 °F -  
Max Temperature 42 °F 34 °F 53 °F (1999)
Min Temperature 33 °F 19 °F 0 °F (2014)
Degree Days  
Heating Degree Days 28    
Moisture  
Dew Point 28 °F    
Average Humidity 71    
Maximum Humidity 93    
Minimum Humidity 49    
Precipitation  
Precipitation 0.01 in - - ()
Sea Level Pressure  
Sea Level Pressure 29.78 in    
Wind  
Wind Speed 5 mph (WNW)    
Max Wind Speed 14 mph    
Max Gust Speed 24 mph    
Visibility 9 miles    
Events      
Averages and records for this station are not official NWS values.
T = Trace of Precipitation, MM = Missing Value Source: NWS Daily Summary

Daily Weather History Graph

Daily Weather History Graph

Search for Another Location

Airport:

Trip Planner

Search our weather history database for the weather conditions in past years. The results will help you decide how hot, cold, wet, or windy it might be!

Date:

Astronomy

Feb. 12, 2013 Rise Set
Actual Time 6:51 AM EST 5:22 PM EST
Civil Twilight 6:22 AM EST 5:51 PM EST
Nautical Twilight 5:50 AM EST 6:23 PM EST
Astronomical Twilight 5:18 AM EST 6:56 PM EST
Moon 7:44 AM EST (2/12) 8:23 PM EST (2/12)
Length of Visible Light 11h 28m
Length of Day
10h 31m
Waxing Crescent, 7% of the Moon is Illuminated
Feb 12
Waxing Crescent
Feb 17
First Quarter
Feb 25
Full
Mar 4
Last Quarter
Mar 11
New

Hourly Weather History & Observations

Time (EST) Temp. Windchill Dew Point Humidity Pressure Visibility Wind Dir Wind Speed Gust Speed Precip Events Conditions
12:15 AM 39.2 °F - 37.4 °F 93% 29.68 in 9.0 mi Calm Calm - N/A   Overcast
12:35 AM 39.2 °F 37.0 °F 35.6 °F 87% 29.68 in 1.8 mi West 3.5 mph - N/A   Overcast
12:55 AM 39.2 °F 35.9 °F 35.6 °F 87% 29.68 in 0.5 mi WSW 4.6 mph - N/A   Overcast
1:15 AM 39.2 °F 35.9 °F 35.6 °F 87% 29.69 in 0.8 mi West 4.6 mph - N/A   Overcast
1:35 AM 39.2 °F 37.0 °F 35.6 °F 87% 29.69 in 10.0 mi NW 3.5 mph - N/A   Overcast
1:55 AM 39.2 °F 37.0 °F 35.6 °F 87% 29.69 in 3.0 mi NW 3.5 mph - N/A   Overcast
2:15 AM 37.4 °F 33.8 °F 33.8 °F 87% 29.70 in 5.0 mi NNW 4.6 mph - N/A   Overcast
2:35 AM 37.4 °F 34.9 °F 33.8 °F 87% 29.71 in 4.0 mi NW 3.5 mph - N/A   Mostly Cloudy
2:55 AM 37.4 °F - 33.8 °F 87% 29.71 in 4.0 mi Calm Calm - N/A   Overcast
3:15 AM 37.4 °F 34.9 °F 33.8 °F 87% 29.71 in 5.0 mi NW 3.5 mph - N/A   Overcast
3:35 AM 37.4 °F 33.8 °F 33.8 °F 87% 29.71 in 9.0 mi WNW 4.6 mph - N/A   Overcast
3:55 AM 37.4 °F 32.8 °F 33.8 °F 87% 29.71 in 10.0 mi West 5.8 mph - N/A   Overcast
4:15 AM 37.4 °F 33.8 °F 32.0 °F 81% 29.72 in 10.0 mi WNW 4.6 mph - N/A   Overcast
4:35 AM 37.4 °F 33.8 °F 32.0 °F 81% 29.73 in 10.0 mi West 4.6 mph - N/A   Overcast
4:55 AM 35.6 °F 29.9 °F 32.0 °F 87% 29.73 in 10.0 mi West 6.9 mph - N/A   Overcast
5:15 AM 35.6 °F 27.5 °F 30.2 °F 81% 29.73 in 10.0 mi West 11.5 mph - N/A   Overcast
5:35 AM 35.6 °F 28.0 °F 30.2 °F 81% 29.74 in 10.0 mi West 10.4 mph - N/A   Overcast
5:45 AM 35.6 °F 29.2 °F 28.4 °F 75% 29.74 in 10.0 mi West 8.1 mph - N/A   Overcast
5:55 AM 37.4 °F 32.1 °F 28.4 °F 70% 29.74 in 10.0 mi West 6.9 mph - N/A   Overcast
6:45 AM 37.4 °F 32.1 °F 24.8 °F 60% 29.75 in 10.0 mi WNW 6.9 mph - N/A   Overcast
7:45 AM 37.4 °F 32.1 °F 24.8 °F 60% 29.75 in 10.0 mi West 6.9 mph - N/A   Overcast
9:45 AM 39.2 °F 32.5 °F 24.8 °F 56% 29.79 in 10.0 mi West 10.4 mph 20.7 mph N/A   Overcast
10:45 AM 41.0 °F 33.5 °F 24.8 °F 53% 29.80 in 10.0 mi West 13.8 mph 23.0 mph N/A   Mostly Cloudy
11:45 AM 41.0 °F 34.3 °F 24.8 °F 53% 29.81 in 10.0 mi NW 11.5 mph 24.2 mph N/A   Mostly Cloudy
12:45 PM 41.0 °F 34.3 °F 39.2 °F 93% 29.80 in 10.0 mi NW 11.5 mph 23.0 mph N/A   Mostly Cloudy
1:45 PM 42.8 °F 36.6 °F 24.8 °F 49% 29.82 in 10.0 mi NW 11.5 mph 23.0 mph N/A   Overcast
2:45 PM 41.0 °F 34.3 °F 23.0 °F 49% 29.82 in 10.0 mi NW 11.5 mph 23.0 mph N/A   Mostly Cloudy
4:45 PM 39.2 °F 32.0 °F - N/A% 29.82 in 10.0 mi WNW 11.5 mph 16.1 mph N/A   Mostly Cloudy
5:45 PM 37.4 °F 32.1 °F 23.0 °F 56% 29.85 in 10.0 mi WNW 6.9 mph - N/A   Scattered Clouds
7:45 PM 35.6 °F 29.9 °F 21.2 °F 56% 29.91 in 10.0 mi WNW 6.9 mph - N/A   Overcast
8:45 PM 35.6 °F 29.2 °F 21.2 °F 56% 29.91 in 10.0 mi West 8.1 mph - N/A   Overcast
8:55 PM 35.6 °F 32.8 °F 21.2 °F 56% 29.90 in 10.0 mi West 3.5 mph - N/A   Mostly Cloudy
9:15 PM 35.6 °F 29.9 °F 21.2 °F 56% 29.89 in 10.0 mi West 6.9 mph - N/A   Partly Cloudy
9:35 PM 35.6 °F 29.9 °F 21.2 °F 56% 29.88 in 10.0 mi WNW 6.9 mph - N/A   Partly Cloudy
9:55 PM 33.8 °F 29.6 °F 21.2 °F 60% 29.87 in 10.0 mi WNW 4.6 mph - N/A   Mostly Cloudy
10:15 PM 35.6 °F 32.8 °F 21.2 °F 56% 29.87 in 10.0 mi WNW 3.5 mph - N/A   Overcast
10:35 PM 35.6 °F 32.8 °F 21.2 °F 56% 29.87 in 10.0 mi WNW 3.5 mph - N/A   Overcast
10:55 PM 33.8 °F 30.8 °F 21.2 °F 60% 29.87 in 10.0 mi WNW 3.5 mph - N/A   Overcast
11:15 PM 33.8 °F 29.6 °F 21.2 °F 60% 29.88 in 10.0 mi WNW 4.6 mph - N/A   Overcast
11:35 PM 33.8 °F 29.6 °F 21.2 °F 60% 29.89 in 10.0 mi WNW 4.6 mph - N/A   Overcast
11:55 PM 33.8 °F 29.6 °F 21.2 °F 60% 29.89 in 10.0 mi WNW 4.6 mph - N/A   Overcast